PDT,Max TemperatureF,Mean TemperatureF,Min TemperatureF,Max Dew PointF,MeanDew PointF,Min DewpointF,Max Humidity, Mean Humidity, Min Humidity, Max Sea Level PressureIn, Mean Sea Level PressureIn, Min Sea Level PressureIn, Max VisibilityMiles, Mean VisibilityMiles, Min VisibilityMiles, Max Wind SpeedMPH, Mean Wind SpeedMPH, Max Gust SpeedMPH,PrecipitationIn, CloudCover, Events, WindDirDegrees
2013-8-1,71,65,59,57,49,42,84,61,37,29.93,29.90,29.86,10,10,9,14,5,18,0.04,6,Rain,187
2013-8-2,61,58,55,57,55,54,93,86,78,30.09,30.01,29.91,10,8,3,15,7,18,0.53,8,Rain,191
2013-8-3,76,67,57,57,55,51,100,72,43,30.12,30.08,30.03,10,9,4,9,2,12,T,6,Rain,46
2013-8-4,84,71,57,56,52,46,87,58,28,30.06,30.01,29.94,10,10,10,17,3,20,0.00,2,,56
2013-8-5,89,74,59,55,50,44,80,52,23,29.97,29.93,29.87,10,10,10,20,5,22,0.00,3,,24
2013-8-6,89,76,62,56,49,40,78,48,18,29.97,29.91,29.85,10,10,10,14,5,17,0.00,3,,154
2013-8-7,91,77,63,51,43,34,63,39,14,29.92,29.87,29.83,10,10,10,15,6,20,0.00,2,,190
2013-8-8,91,76,60,49,42,35,52,34,15,29.94,29.89,29.84,10,10,10,13,4,15,0.00,4,,123
2013-8-9,92,79,65,54,50,44,56,41,25,29.88,29.83,29.78,10,10,10,18,7,25,T,6,Rain-Thunderstorm,58
2013-8-10,91,78,65,57,51,43,73,46,19,29.99,29.89,29.83,10,10,7,28,8,35,0.03,6,Rain-Thunderstorm,36
2013-8-11,89,76,62,57,53,44,78,53,28,30.03,29.94,29.87,10,10,7,17,7,29,0.04,6,Rain-Thunderstorm,227
2013-8-12,90,75,60,55,51,46,72,48,24,29.98,29.94,29.88,10,10,10,10,4,16,0.00,4,,228
2013-8-13,89,76,62,49,45,40,56,37,18,30.05,29.98,29.93,10,10,10,9,4,13,0.00,3,,167
2013-8-14,92,78,64,56,49,40,73,45,16,29.95,29.89,29.81,10,10,10,16,8,17,0.00,5,,64
2013-8-15,90,77,63,49,45,42,56,38,19,29.93,29.88,29.83,10,10,10,13,6,18,0.00,5,,220
2013-8-16,87,75,62,51,46,43,56,39,21,29.97,29.93,29.89,10,10,10,20,7,24,0.00,6,,227
2013-8-17,87,74,61,55,49,45,72,48,23,30.00,29.95,29.90,10,10,10,21,10,26,0.00,3,,203
2013-8-18,85,72,58,48,44,38,72,46,19,30.05,29.99,29.95,10,10,10,21,10,26,0.00,2,,210
2013-8-19,85,72,59,47,43,40,57,40,22,30.00,29.95,29.91,10,10,10,22,11,32,0.00,1,,210
2013-8-20,82,70,57,44,35,23,57,35,12,30.03,29.99,29.93,10,10,10,16,7,22,0.00,1,,226
2013-8-21,87,70,53,40,35,29,54,34,14,30.07,30.02,29.96,10,10,10,12,4,15,0.00,4,,36
2013-8-22,91,74,56,44,40,38,51,34,17,29.95,29.87,29.77,10,10,10,23,5,29,0.00,6,,57
2013-8-23,82,73,64,53,50,45,63,48,32,29.82,29.79,29.75,10,10,10,20,9,23,0.00,6,,196
2013-8-24,83,71,58,54,46,42,72,48,24,29.87,29.80,29.73,10,10,10,14,6,16,0.01,4,Rain-Thunderstorm,186
2013-8-25,84,72,59,57,52,49,78,55,31,29.92,29.85,29.75,10,10,7,43,6,54,0.03,6,Rain-Thunderstorm,75
2013-8-26,80,68,55,55,49,41,93,60,27,29.99,29.93,29.88,10,10,10,17,7,26,0.00,5,,193
2013-8-27,84,70,56,50,46,44,69,48,26,29.98,29.90,29.79,10,10,10,10,4,18,0.00,1,,84
2013-8-28,85,72,59,51,46,41,64,44,23,29.88,29.83,29.75,10,10,10,16,5,21,0.00,4,,189
2013-8-29,84,73,61,53,49,44,65,47,28,30.01,29.91,29.84,10,10,10,24,7,29,0.00,5,,196
2013-8-30,80,70,59,52,46,38,75,50,25,30.11,30.05,29.99,10,10,10,22,10,29,T,4,,215
2013-8-31,84,68,52,49,40,35,72,46,20,30.09,30.00,29.89,10,10,10,12,4,18,0.00,0,,60